Edinburgh Airport, United Kingdom

8:52 AM GMT on February 09, 2016 (GMT +0000)
Edinburgh Airport

Weather History for EGPH - February, 2013

Change the Weather History Date:

Saturday, February 23, 2013

  Actual Average Record
Temperature  
Mean Temperature 34 °F -  
Max Temperature 39 °F 47 °F 55 °F (2009)
Min Temperature 30 °F 34 °F 26 °F (2001)
Degree Days  
Heating Degree Days 30    
Moisture  
Dew Point 28 °F    
Average Humidity 80    
Maximum Humidity 93    
Minimum Humidity 52    
Precipitation  
Precipitation 0.00 in 0.06 in - ()
Sea Level Pressure  
Sea Level Pressure 30.31 in    
Wind  
Wind Speed 3 mph ()    
Max Wind Speed 8 mph    
Max Gust Speed -    
Visibility 6.2 miles    
Events Snow    
Averages and records for this station are not official NWS values.
T = Trace of Precipitation, MM = Missing Value Source: Averaged Metar Reports

Daily Weather History Graph

Daily Weather History Graph

Search for Another Location

Airport or City:

Trip Planner

Search our weather history database for the weather conditions in past years. The results will help you decide how hot, cold, wet, or windy it might be!

Date:

Astronomy

Feb. 23, 2013 Rise Set
Actual Time 7:19 AM GMT 5:35 PM GMT
Civil Twilight 6:41 AM GMT 6:12 PM GMT
Nautical Twilight 5:58 AM GMT 6:55 PM GMT
Astronomical Twilight 5:15 AM GMT 7:39 PM GMT
Moon 3:17 PM GMT (2/23) 5:50 AM GMT (2/23)
Length of Visible Light 11h 31m
Length of Day
10h 15m
Waxing Gibbous, 94% of the Moon is Illuminated
Feb 23
Waxing Gibbous
Feb 25
Full
Mar 4
Last Quarter
Mar 11
New
Mar 19
First Quarter

Hourly Weather History & Observations

Time (GMT) Temp. Windchill Dew Point Humidity Pressure Visibility Wind Dir Wind Speed Gust Speed Precip Events Conditions
12:20 AM 32.0 °F - 28.4 °F 87% 30.30 in 6.2 mi Variable 2.3 mph - N/A Snow Light Snow
12:50 AM 32.0 °F 28.7 °F 28.4 °F 87% 30.30 in 6.2 mi WSW 3.5 mph - N/A Snow Light Snow
1:20 AM 32.0 °F 28.7 °F 28.4 °F 87% 30.27 in 6.2 mi WSW 3.5 mph - N/A Snow Light Snow
1:50 AM 32.0 °F 28.7 °F 28.4 °F 87% 30.27 in 6.2 mi WSW 3.5 mph - N/A Snow Light Snow
2:20 AM 32.0 °F 28.7 °F 28.4 °F 87% 30.27 in 6.2 mi WSW 3.5 mph - N/A Snow Light Snow
2:50 AM 32.0 °F 27.5 °F 28.4 °F 87% 30.27 in 6.2 mi SW 4.6 mph - N/A Snow Light Snow
3:20 AM 32.0 °F - 28.4 °F 87% 30.27 in 6.2 mi Calm Calm - N/A   Overcast
3:50 AM 32.0 °F - 28.4 °F 87% 30.27 in 6.2 mi Calm Calm - N/A   Overcast
4:20 AM 32.0 °F - 28.4 °F 87% 30.27 in 6.2 mi WSW 2.3 mph - N/A   Overcast
4:50 AM 32.0 °F 28.7 °F 28.4 °F 87% 30.27 in 6.2 mi WSW 3.5 mph - N/A   Overcast
5:20 AM 32.0 °F 28.7 °F 28.4 °F 87% 30.27 in 6.2 mi WSW 3.5 mph - N/A   Overcast
5:50 AM 32.0 °F 28.7 °F 28.4 °F 87% 30.27 in 6.2 mi West 3.5 mph - N/A   Overcast
6:20 AM 30.2 °F 26.7 °F 28.4 °F 93% 30.27 in 6.2 mi WSW 3.5 mph - N/A   Overcast
6:50 AM 32.0 °F 28.7 °F 28.4 °F 87% 30.27 in 6.2 mi WSW 3.5 mph - N/A   Mostly Cloudy
7:20 AM 32.0 °F 28.7 °F 28.4 °F 87% 30.27 in 6.2 mi West 3.5 mph - N/A   Mostly Cloudy
7:50 AM 32.0 °F 28.7 °F 28.4 °F 87% 30.27 in 6.2 mi West 3.5 mph - N/A   Mostly Cloudy
8:20 AM 32.0 °F - 28.4 °F 87% 30.30 in 6.2 mi Calm Calm - N/A   Mostly Cloudy
8:50 AM 32.0 °F 28.7 °F 30.2 °F 93% 30.30 in 6.2 mi West 3.5 mph - N/A   Mostly Cloudy
9:20 AM 33.8 °F - 28.4 °F 81% 30.30 in - Calm Calm - N/A   Clear
9:50 AM 33.8 °F - 28.4 °F 81% 30.30 in - Calm Calm - N/A   Clear
10:20 AM 35.6 °F 30.7 °F 28.4 °F 75% 30.30 in - North 5.8 mph - N/A   Clear
10:50 AM 37.4 °F - 24.8 °F 60% 30.30 in - Variable 2.3 mph - N/A   Clear
11:20 AM 37.4 °F 32.8 °F 24.8 °F 60% 30.30 in - NNE 5.8 mph - N/A   Clear
11:50 AM 37.4 °F 32.8 °F 24.8 °F 60% 30.30 in - ENE 5.8 mph - N/A   Clear
12:20 PM 37.4 °F 32.8 °F 24.8 °F 60% 30.30 in - NE 5.8 mph - N/A   Clear
12:50 PM 39.2 °F 34.2 °F 24.8 °F 56% 30.30 in - ENE 6.9 mph - N/A   Clear
1:20 PM 39.2 °F 34.2 °F 24.8 °F 56% 30.30 in 6.2 mi NE 6.9 mph - N/A   Partly Cloudy
1:50 PM 39.2 °F 35.0 °F 23.0 °F 52% 30.30 in 6.2 mi ENE 5.8 mph - N/A   Partly Cloudy
2:20 PM 39.2 °F 34.2 °F 24.8 °F 56% 30.30 in 6.2 mi ENE 6.9 mph - N/A   Partly Cloudy
2:50 PM 39.2 °F 34.2 °F 26.6 °F 61% 30.30 in 6.2 mi ENE 6.9 mph - N/A   Partly Cloudy
3:20 PM 39.2 °F 34.2 °F 28.4 °F 65% 30.30 in 6.2 mi ENE 6.9 mph - N/A   Scattered Clouds
3:50 PM 37.4 °F 34.9 °F 28.4 °F 70% 30.30 in 6.2 mi NE 3.5 mph - N/A   Scattered Clouds
4:20 PM 39.2 °F 35.0 °F 28.4 °F 65% 30.30 in 6.2 mi NE 5.8 mph - N/A   Mostly Cloudy
4:50 PM 37.4 °F 33.8 °F 30.2 °F 75% 30.30 in 6.2 mi NNE 4.6 mph - N/A   Mostly Cloudy
5:20 PM 37.4 °F 32.1 °F 32.0 °F 81% 30.30 in 6.2 mi NNE 6.9 mph - N/A   Mostly Cloudy
5:50 PM 35.6 °F 31.7 °F 32.0 °F 87% 30.30 in 6.2 mi NNE 4.6 mph - N/A   Mostly Cloudy
6:20 PM 35.6 °F 31.7 °F 32.0 °F 87% 30.30 in 6.2 mi North 4.6 mph - N/A   Scattered Clouds
6:50 PM 35.6 °F 29.9 °F 32.0 °F 87% 30.33 in 6.2 mi ENE 6.9 mph - N/A   Scattered Clouds
7:20 PM 35.6 °F 29.2 °F 32.0 °F 87% 30.33 in 6.2 mi ENE 8.1 mph - N/A   Mostly Cloudy
7:50 PM 33.8 °F 29.6 °F 30.2 °F 87% 30.36 in 6.2 mi ESE 4.6 mph - N/A   Partly Cloudy
8:20 PM 33.8 °F - 30.2 °F 87% 30.36 in 6.2 mi East 2.3 mph - N/A   Partly Cloudy
8:50 PM 33.8 °F 30.8 °F 30.2 °F 87% 30.36 in 6.2 mi ESE 3.5 mph - N/A   Partly Cloudy
9:20 PM 33.8 °F - 28.4 °F 81% 30.36 in 6.2 mi Calm Calm - N/A   Scattered Clouds
9:50 PM 33.8 °F - 30.2 °F 87% 30.39 in 6.2 mi North 2.3 mph - N/A   Partly Cloudy
10:20 PM 33.8 °F - 30.2 °F 87% 30.39 in 6.2 mi ENE 2.3 mph - N/A   Scattered Clouds
10:50 PM 33.8 °F - 30.2 °F 87% 30.39 in 6.2 mi North 2.3 mph - N/A   Mostly Cloudy
11:20 PM 33.8 °F - 30.2 °F 87% 30.39 in 6.2 mi Variable 2.3 mph - N/A   Mostly Cloudy
11:50 PM 33.8 °F - 30.2 °F 87% 30.39 in 6.2 mi Calm Calm - N/A   Mostly Cloudy